Time,TemperatureF,DewpointF,PressureIn,WindDirection,WindDirectionDegrees,WindSpeedMPH,WindSpeedGustMPH,Humidity,HourlyPrecipIn,Conditions,Clouds,dailyrainin,SoftwareType,DateUTC
2013-05-06 00:02:00,42.4,40.6,30.22,North,0,0.0,0.0,93,-99.99,,,-99.99,PWS SA v1.10,2013-05-06 04:02:00,
2013-05-06 00:04:00,42.4,40.8,30.22,North,0,0.0,0.0,93,-99.99,,,-99.99,PWS SA v1.10,2013-05-06 04:04:00,
2013-05-06 00:06:00,42.4,40.5,30.22,North,0,0.0,0.0,93,-99.99,,,-99.99,PWS SA v1.10,2013-05-06 04:06:00,
2013-05-06 00:08:00,42.0,40.2,30.22,North,0,0.0,0.0,93,-99.99,,,-99.99,PWS SA v1.10,2013-05-06 04:08:00,
2013-05-06 00:10:00,42.1,40.5,30.22,North,0,0.0,0.0,93,-99.99,,,-99.99,PWS SA v1.10,2013-05-06 04:10:00,
2013-05-06 00:18:00,41.7,39.9,30.22,North,0,0.0,0.0,93,-99.99,,,-99.99,PWS SA v1.10,2013-05-06 04:18:00,
2013-05-06 00:24:00,41.6,40.1,30.21,North,0,0.0,0.0,94,-99.99,,,-99.99,PWS SA v1.10,2013-05-06 04:24:00,
2013-05-06 00:30:00,41.5,40.0,30.21,North,0,0.0,0.0,94,-99.99,,,-99.99,PWS SA v1.10,2013-05-06 04:30:00,
2013-05-06 00:36:00,41.9,40.5,30.22,North,0,0.0,0.0,94,-99.99,,,-99.99,PWS SA v1.10,2013-05-06 04:36:00,
2013-05-06 00:42:00,41.2,40.1,30.22,North,0,0.0,0.0,94,-99.99,,,-99.99,PWS SA v1.10,2013-05-06 04:42:00,
2013-05-06 00:48:00,41.2,39.7,30.22,North,0,0.0,0.0,94,-99.99,,,-99.99,PWS SA v1.10,2013-05-06 04:48:00,
2013-05-06 00:54:00,40.9,39.5,30.22,North,0,0.0,0.0,94,-99.99,,,-99.99,PWS SA v1.10,2013-05-06 04:54:00,
2013-05-06 01:00:00,40.9,39.5,30.21,North,0,0.0,0.0,94,-99.99,,,-99.99,PWS SA v1.10,2013-05-06 05:00:00,
2013-05-06 01:06:00,40.7,39.4,30.21,North,0,0.0,0.0,94,-99.99,,,-99.99,PWS SA v1.10,2013-05-06 05:06:00,
2013-05-06 01:12:00,40.6,39.3,30.21,North,0,0.0,0.0,94,-99.99,,,-99.99,PWS SA v1.10,2013-05-06 05:12:00,
2013-05-06 01:18:00,40.5,39.3,30.21,North,0,0.0,0.0,94,-99.99,,,-99.99,PWS SA v1.10,2013-05-06 05:18:00,
2013-05-06 01:24:00,40.8,39.6,30.21,North,0,0.0,0.0,95,-99.99,,,-99.99,PWS SA v1.10,2013-05-06 05:24:00,
2013-05-06 01:30:00,40.4,39.3,30.21,North,0,0.0,0.0,95,-99.99,,,-99.99,PWS SA v1.10,2013-05-06 05:30:00,
2013-05-06 01:36:00,40.4,39.0,30.21,North,0,0.0,0.0,94,-99.99,,,-99.99,PWS SA v1.10,2013-05-06 05:36:00,
2013-05-06 01:42:00,40.3,38.9,30.21,North,0,0.0,0.0,94,-99.99,,,-99.99,PWS SA v1.10,2013-05-06 05:42:00,
2013-05-06 01:48:00,40.3,38.8,30.21,North,0,0.0,0.0,94,-99.99,,,-99.99,PWS SA v1.10,2013-05-06 05:48:00,
2013-05-06 01:54:00,39.8,38.4,30.20,North,0,0.0,0.0,94,-99.99,,,-99.99,PWS SA v1.10,2013-05-06 05:54:00,
2013-05-06 02:00:00,39.5,38.1,30.21,North,0,0.0,0.0,94,-99.99,,,-99.99,PWS SA v1.10,2013-05-06 06:00:00,
2013-05-06 02:06:00,39.4,38.4,30.20,North,0,0.0,0.0,95,-99.99,,,-99.99,PWS SA v1.10,2013-05-06 06:06:00,
2013-05-06 02:12:00,39.3,38.5,30.20,North,0,0.0,0.0,96,-99.99,,,-99.99,PWS SA v1.10,2013-05-06 06:12:00,
2013-05-06 02:18:00,39.4,38.1,30.20,North,0,0.0,0.0,95,-99.99,,,-99.99,PWS SA v1.10,2013-05-06 06:18:00,
2013-05-06 02:24:00,39.6,38.1,30.20,North,0,0.0,0.0,95,-99.99,,,-99.99,PWS SA v1.10,2013-05-06 06:24:00,
2013-05-06 02:30:00,39.5,38.4,30.20,North,0,0.0,0.0,95,-99.99,,,-99.99,PWS SA v1.10,2013-05-06 06:30:00,
2013-05-06 02:36:00,38.9,37.8,30.20,North,0,0.0,0.0,95,-99.99,,,-99.99,PWS SA v1.10,2013-05-06 06:36:00,
2013-05-06 02:42:00,39.0,37.9,30.20,North,0,0.0,0.0,95,-99.99,,,-99.99,PWS SA v1.10,2013-05-06 06:42:00,
2013-05-06 02:48:00,39.1,37.7,30.20,North,0,0.0,0.0,95,-99.99,,,-99.99,PWS SA v1.10,2013-05-06 06:48:00,
2013-05-06 02:54:00,39.1,38.0,30.20,North,0,0.0,0.0,95,-99.99,,,-99.99,PWS SA v1.10,2013-05-06 06:54:00,
2013-05-06 03:00:00,39.0,37.8,30.20,North,0,0.0,0.0,94,-99.99,,,-99.99,PWS SA v1.10,2013-05-06 07:00:00,
2013-05-06 03:06:00,38.6,37.3,30.20,North,0,0.0,0.0,94,-99.99,,,-99.99,PWS SA v1.10,2013-05-06 07:06:00,
2013-05-06 03:12:00,38.5,37.2,30.20,North,0,0.0,0.0,95,-99.99,,,-99.99,PWS SA v1.10,2013-05-06 07:12:00,
2013-05-06 03:18:00,38.6,37.5,30.20,North,0,0.0,0.0,96,-99.99,,,-99.99,PWS SA v1.10,2013-05-06 07:18:00,
2013-05-06 03:24:00,38.4,37.4,30.20,North,0,0.0,0.0,96,-99.99,,,-99.99,PWS SA v1.10,2013-05-06 07:24:00,
2013-05-06 03:30:00,38.8,37.9,30.20,North,0,0.0,0.0,96,-99.99,,,-99.99,PWS SA v1.10,2013-05-06 07:30:00,
2013-05-06 03:36:00,39.2,38.1,30.20,North,0,0.0,0.0,96,-99.99,,,-99.99,PWS SA v1.10,2013-05-06 07:36:00,
2013-05-06 03:42:00,39.4,39.0,30.20,North,0,0.0,0.0,98,-99.99,,,-99.99,PWS SA v1.10,2013-05-06 07:42:00,
2013-05-06 03:48:00,40.1,39.5,30.19,North,0,0.0,0.0,98,-99.99,,,-99.99,PWS SA v1.10,2013-05-06 07:48:00,
2013-05-06 03:54:00,40.3,39.9,30.20,North,0,0.0,0.0,98,-99.99,,,-99.99,PWS SA v1.10,2013-05-06 07:54:00,
2013-05-06 04:00:00,40.2,39.7,30.19,North,0,0.0,0.0,97,-99.99,,,-99.99,PWS SA v1.10,2013-05-06 08:00:00,
2013-05-06 04:06:00,40.4,39.8,30.20,North,0,0.0,0.0,97,-99.99,,,-99.99,PWS SA v1.10,2013-05-06 08:06:00,
2013-05-06 04:12:00,40.6,39.9,30.20,North,0,0.0,0.0,97,-99.99,,,-99.99,PWS SA v1.10,2013-05-06 08:12:00,
2013-05-06 04:18:00,41.2,40.4,30.20,North,0,0.0,0.0,97,-99.99,,,-99.99,PWS SA v1.10,2013-05-06 08:18:00,
2013-05-06 04:24:00,41.0,40.3,30.19,North,0,0.0,0.0,97,-99.99,,,-99.99,PWS SA v1.10,2013-05-06 08:24:00,
2013-05-06 04:30:00,41.1,40.3,30.20,North,0,0.0,0.0,97,-99.99,,,-99.99,PWS SA v1.10,2013-05-06 08:30:00,
2013-05-06 04:36:00,41.0,40.4,30.20,North,0,0.0,0.0,97,-99.99,,,-99.99,PWS SA v1.10,2013-05-06 08:36:00,
2013-05-06 04:42:00,40.8,40.1,30.20,North,0,0.0,0.0,97,-99.99,,,-99.99,PWS SA v1.10,2013-05-06 08:42:00,
2013-05-06 04:48:00,40.8,40.2,30.20,North,0,0.0,0.0,97,-99.99,,,-99.99,PWS SA v1.10,2013-05-06 08:48:00,
2013-05-06 04:54:00,41.0,40.6,30.20,North,0,0.0,0.0,98,-99.99,,,-99.99,PWS SA v1.10,2013-05-06 08:54:00,
2013-05-06 05:00:00,40.8,40.2,30.20,North,0,0.0,0.0,98,-99.99,,,-99.99,PWS SA v1.10,2013-05-06 09:00:00,
2013-05-06 05:06:00,40.8,40.6,30.20,SSE,148,1.7,1.7,99,-99.99,,,-99.99,PWS SA v1.10,2013-05-06 09:06:00,
2013-05-06 05:12:00,41.0,40.7,30.20,North,0,0.0,1.0,99,-99.99,,,-99.99,PWS SA v1.10,2013-05-06 09:12:00,
2013-05-06 05:18:00,40.9,40.6,30.20,North,0,0.0,1.0,98,-99.99,,,-99.99,PWS SA v1.10,2013-05-06 09:18:00,
2013-05-06 05:24:00,40.6,40.6,30.20,North,0,0.0,0.0,99,-99.99,,,-99.99,PWS SA v1.10,2013-05-06 09:24:00,
2013-05-06 05:30:00,41.3,40.8,30.20,North,0,0.0,0.0,99,-99.99,,,-99.99,PWS SA v1.10,2013-05-06 09:30:00,
2013-05-06 05:36:00,40.9,40.8,30.20,North,0,0.0,0.0,99,-99.99,,,-99.99,PWS SA v1.10,2013-05-06 09:36:00,
2013-05-06 05:42:00,41.1,40.7,30.21,North,0,0.0,0.0,99,-99.99,,,-99.99,PWS SA v1.10,2013-05-06 09:42:00,
2013-05-06 05:48:00,41.0,40.6,30.21,North,0,0.0,0.0,99,-99.99,,,-99.99,PWS SA v1.10,2013-05-06 09:48:00,
2013-05-06 05:54:00,41.1,40.8,30.21,North,0,0.0,0.0,99,-99.99,,,-99.99,PWS SA v1.10,2013-05-06 09:54:00,
2013-05-06 06:00:00,41.2,40.9,30.21,North,0,0.0,0.0,99,-99.99,,,-99.99,PWS SA v1.10,2013-05-06 10:00:00,
2013-05-06 06:06:00,41.2,41.2,30.20,North,0,0.0,0.0,99,-99.99,,,-99.99,PWS SA v1.10,2013-05-06 10:06:00,
2013-05-06 06:12:00,41.4,41.1,30.21,North,0,0.0,0.0,99,-99.99,,,-99.99,PWS SA v1.10,2013-05-06 10:12:00,
2013-05-06 06:18:00,41.7,41.4,30.21,North,0,0.0,0.0,99,-99.99,,,-99.99,PWS SA v1.10,2013-05-06 10:18:00,
2013-05-06 06:24:00,41.8,41.5,30.22,North,0,0.0,0.0,98,-99.99,,,-99.99,PWS SA v1.10,2013-05-06 10:24:00,
2013-05-06 06:30:00,41.9,41.6,30.23,North,0,0.0,0.0,99,-99.99,,,-99.99,PWS SA v1.10,2013-05-06 10:30:00,
2013-05-06 06:36:00,42.0,41.8,30.23,North,0,0.0,0.0,100,-99.99,,,-99.99,PWS SA v1.10,2013-05-06 10:36:00,
2013-05-06 06:42:00,41.9,41.8,30.23,North,0,0.0,0.0,100,-99.99,,,-99.99,PWS SA v1.10,2013-05-06 10:42:00,
2013-05-06 06:48:00,41.9,41.8,30.23,North,0,0.0,0.0,99,-99.99,,,-99.99,PWS SA v1.10,2013-05-06 10:48:00,
2013-05-06 06:54:00,42.1,42.0,30.23,North,0,0.0,0.0,100,-99.99,,,-99.99,PWS SA v1.10,2013-05-06 10:54:00,
2013-05-06 07:00:00,42.4,42.3,30.23,North,0,0.0,0.0,99,-99.99,,,-99.99,PWS SA v1.10,2013-05-06 11:00:00,
2013-05-06 07:06:00,42.5,42.3,30.24,North,0,0.0,0.0,99,-99.99,,,-99.99,PWS SA v1.10,2013-05-06 11:06:00,
2013-05-06 07:12:00,42.7,42.4,30.23,North,0,0.0,0.0,100,-99.99,,,-99.99,PWS SA v1.10,2013-05-06 11:12:00,
2013-05-06 07:18:00,42.8,42.7,30.23,North,0,0.0,0.0,100,-99.99,,,-99.99,PWS SA v1.10,2013-05-06 11:18:00,
2013-05-06 07:24:00,43.1,43.1,30.23,North,0,0.0,0.0,100,-99.99,,,-99.99,PWS SA v1.10,2013-05-06 11:24:00,
2013-05-06 07:30:00,43.0,42.7,30.23,North,0,0.0,3.0,99,-99.99,,,-99.99,PWS SA v1.10,2013-05-06 11:30:00,
2013-05-06 07:36:00,43.6,43.3,30.24,North,0,0.0,3.0,100,-99.99,,,-99.99,PWS SA v1.10,2013-05-06 11:36:00,
2013-05-06 07:42:00,43.6,43.6,30.23,North,0,0.0,1.0,100,-99.99,,,-99.99,PWS SA v1.10,2013-05-06 11:42:00,
2013-05-06 07:48:00,43.6,43.4,30.23,North,0,0.0,1.0,100,-99.99,,,-99.99,PWS SA v1.10,2013-05-06 11:48:00,
2013-05-06 07:54:00,44.5,43.9,30.24,North,0,0.0,1.0,99,-99.99,,,-99.99,PWS SA v1.10,2013-05-06 11:54:00,
2013-05-06 08:00:00,44.9,44.3,30.23,North,0,0.0,0.0,99,-99.99,,,-99.99,PWS SA v1.10,2013-05-06 12:00:00,
2013-05-06 08:06:00,45.2,44.1,30.24,North,0,0.0,0.0,98,-99.99,,,-99.99,PWS SA v1.10,2013-05-06 12:06:00,
2013-05-06 08:12:00,45.2,44.1,30.24,North,0,0.0,1.0,97,-99.99,,,-99.99,PWS SA v1.10,2013-05-06 12:12:00,
2013-05-06 08:18:00,45.3,44.0,30.24,WSW,241,1.7,1.7,97,-99.99,,,-99.99,PWS SA v1.10,2013-05-06 12:18:00,
2013-05-06 08:24:00,45.2,44.1,30.24,North,0,0.0,1.0,96,-99.99,,,-99.99,PWS SA v1.10,2013-05-06 12:24:00,
2013-05-06 08:30:00,44.9,43.9,30.24,North,0,0.0,1.0,96,-99.99,,,-99.99,PWS SA v1.10,2013-05-06 12:30:00,
2013-05-06 08:36:00,45.1,44.1,30.24,North,0,0.0,1.0,97,-99.99,,,-99.99,PWS SA v1.10,2013-05-06 12:36:00,
2013-05-06 08:42:00,45.5,44.6,30.24,North,0,0.0,1.0,97,-99.99,,,-99.99,PWS SA v1.10,2013-05-06 12:42:00,
2013-05-06 08:48:00,46.1,45.0,30.24,North,0,0.0,0.0,97,-99.99,,,-99.99,PWS SA v1.10,2013-05-06 12:48:00,
2013-05-06 08:54:00,46.0,44.5,30.24,North,0,0.0,0.0,95,-99.99,,,-99.99,PWS SA v1.10,2013-05-06 12:54:00,
2013-05-06 09:00:00,46.6,44.9,30.24,North,0,0.0,0.0,95,-99.99,,,-99.99,PWS SA v1.10,2013-05-06 13:00:00,
2013-05-06 09:06:00,46.5,44.4,30.25,North,0,0.0,0.0,94,-99.99,,,-99.99,PWS SA v1.10,2013-05-06 13:06:00,
2013-05-06 09:12:00,47.3,45.2,30.24,North,0,0.0,1.0,94,-99.99,,,-99.99,PWS SA v1.10,2013-05-06 13:12:00,
2013-05-06 09:18:00,47.3,45.1,30.24,North,0,0.0,1.0,93,-99.99,,,-99.99,PWS SA v1.10,2013-05-06 13:18:00,
2013-05-06 09:24:00,47.6,45.2,30.24,North,0,0.0,1.0,92,-99.99,,,-99.99,PWS SA v1.10,2013-05-06 13:24:00,
2013-05-06 09:30:00,47.9,45.2,30.24,North,0,0.0,3.0,91,-99.99,,,-99.99,PWS SA v1.10,2013-05-06 13:30:00,
2013-05-06 09:36:00,48.5,45.4,30.24,North,0,0.0,3.0,91,-99.99,,,-99.99,PWS SA v1.10,2013-05-06 13:36:00,
2013-05-06 09:42:00,48.8,45.6,30.24,North,0,0.0,3.0,90,-99.99,,,-99.99,PWS SA v1.10,2013-05-06 13:42:00,
2013-05-06 09:48:00,49.4,45.8,30.24,North,0,0.0,1.0,89,-99.99,,,-99.99,PWS SA v1.10,2013-05-06 13:48:00,
2013-05-06 09:54:00,50.6,46.3,30.24,North,0,0.0,1.0,87,-99.99,,,-99.99,PWS SA v1.10,2013-05-06 13:54:00,
2013-05-06 10:00:00,51.1,46.5,30.24,NE,48,1.7,1.7,85,-99.99,,,-99.99,PWS SA v1.10,2013-05-06 14:00:00,
2013-05-06 10:06:00,51.2,46.1,30.24,North,0,0.0,1.0,84,-99.99,,,-99.99,PWS SA v1.10,2013-05-06 14:06:00,
2013-05-06 10:12:00,51.0,45.9,30.24,North,0,0.0,1.0,83,-99.99,,,-99.99,PWS SA v1.10,2013-05-06 14:12:00,
2013-05-06 10:18:00,51.3,46.4,30.23,North,0,0.0,0.0,85,-99.99,,,-99.99,PWS SA v1.10,2013-05-06 14:18:00,
2013-05-06 10:24:00,51.4,45.5,30.23,West,268,1.7,1.7,82,-99.99,,,-99.99,PWS SA v1.10,2013-05-06 14:24:00,
2013-05-06 10:30:00,52.6,46.5,30.23,SSE,165,5.1,5.1,81,-99.99,,,-99.99,PWS SA v1.10,2013-05-06 14:30:00,
2013-05-06 10:36:00,52.7,46.2,30.24,North,0,0.0,5.0,81,-99.99,,,-99.99,PWS SA v1.10,2013-05-06 14:36:00,
2013-05-06 10:42:00,52.3,45.4,30.24,West,264,3.4,5.0,79,-99.99,,,-99.99,PWS SA v1.10,2013-05-06 14:42:00,
2013-05-06 10:48:00,52.6,45.8,30.23,North,0,0.0,3.0,80,-99.99,,,-99.99,PWS SA v1.10,2013-05-06 14:48:00,
2013-05-06 10:54:00,52.9,45.8,30.23,ENE,69,3.4,3.4,79,-99.99,,,-99.99,PWS SA v1.10,2013-05-06 14:54:00,
2013-05-06 11:00:00,53.3,45.5,30.23,WSW,257,3.4,3.4,77,-99.99,,,-99.99,PWS SA v1.10,2013-05-06 15:00:00,
2013-05-06 11:06:00,53.5,45.3,30.23,NW,310,1.7,6.0,75,-99.99,,,-99.99,PWS SA v1.10,2013-05-06 15:06:00,
2013-05-06 11:12:00,54.9,46.5,30.22,North,0,0.0,6.0,75,-99.99,,,-99.99,PWS SA v1.10,2013-05-06 15:12:00,
2013-05-06 11:18:00,55.9,46.6,30.22,WNW,301,1.7,3.0,73,-99.99,,,-99.99,PWS SA v1.10,2013-05-06 15:18:00,
2013-05-06 11:24:00,56.0,46.2,30.22,North,0,0.0,5.0,71,-99.99,,,-99.99,PWS SA v1.10,2013-05-06 15:24:00,
2013-05-06 11:30:00,56.9,45.8,30.22,North,0,0.0,5.0,68,-99.99,,,-99.99,PWS SA v1.10,2013-05-06 15:30:00,
2013-05-06 11:36:00,56.1,45.3,30.21,North,0,0.0,5.0,67,-99.99,,,-99.99,PWS SA v1.10,2013-05-06 15:36:00,
2013-05-06 11:42:00,57.9,47.4,30.21,North,0,0.0,5.0,70,-99.99,,,-99.99,PWS SA v1.10,2013-05-06 15:42:00,
2013-05-06 11:48:00,58.5,46.8,30.21,North,0,0.0,3.0,66,-99.99,,,-99.99,PWS SA v1.10,2013-05-06 15:48:00,
2013-05-06 11:54:00,58.4,45.3,30.21,North,0,0.0,5.0,62,-99.99,,,-99.99,PWS SA v1.10,2013-05-06 15:54:00,
2013-05-06 12:00:00,59.8,47.5,30.20,WSW,244,1.7,5.0,65,-99.99,,,-99.99,PWS SA v1.10,2013-05-06 16:00:00,
2013-05-06 12:06:00,59.7,45.4,30.20,SSE,157,1.7,5.0,60,-99.99,,,-99.99,PWS SA v1.10,2013-05-06 16:06:00,
2013-05-06 12:12:00,60.4,45.9,30.19,North,0,0.0,5.0,59,-99.99,,,-99.99,PWS SA v1.10,2013-05-06 16:12:00,
2013-05-06 12:18:00,61.1,45.7,30.19,North,0,0.0,5.0,58,-99.99,,,-99.99,PWS SA v1.10,2013-05-06 16:18:00,
2013-05-06 12:24:00,61.7,46.2,30.19,SSE,155,1.7,5.0,58,-99.99,,,-99.99,PWS SA v1.10,2013-05-06 16:24:00,
2013-05-06 12:30:00,62.7,47.2,30.19,West,274,3.4,3.4,58,-99.99,,,-99.99,PWS SA v1.10,2013-05-06 16:30:00,
2013-05-06 12:36:00,63.6,47.0,30.19,West,259,3.4,3.4,56,-99.99,,,-99.99,PWS SA v1.10,2013-05-06 16:36:00,
2013-05-06 12:42:00,63.5,45.9,30.18,North,0,0.0,5.0,54,-99.99,,,-99.99,PWS SA v1.10,2013-05-06 16:42:00,
2013-05-06 12:48:00,64.7,47.1,30.18,WNW,282,1.7,5.0,54,-99.99,,,-99.99,PWS SA v1.10,2013-05-06 16:48:00,
2013-05-06 12:54:00,65.4,48.5,30.17,North,0,0.0,5.0,56,-99.99,,,-99.99,PWS SA v1.10,2013-05-06 16:54:00,
2013-05-06 13:00:00,65.6,47.0,30.17,North,0,0.0,3.0,51,-99.99,,,-99.99,PWS SA v1.10,2013-05-06 17:00:00,
2013-05-06 13:06:00,66.2,48.3,30.17,North,0,0.0,3.0,53,-99.99,,,-99.99,PWS SA v1.10,2013-05-06 17:06:00,
2013-05-06 13:12:00,66.0,46.9,30.16,North,0,0.0,3.0,51,-99.99,,,-99.99,PWS SA v1.10,2013-05-06 17:12:00,
2013-05-06 13:18:00,67.8,48.8,30.16,North,0,0.0,1.0,52,-99.99,,,-99.99,PWS SA v1.10,2013-05-06 17:18:00,
2013-05-06 13:24:00,67.9,47.4,30.17,North,0,0.0,5.0,48,-99.99,,,-99.99,PWS SA v1.10,2013-05-06 17:24:00,
2013-05-06 13:30:00,68.3,47.4,30.16,North,0,0.0,5.0,48,-99.99,,,-99.99,PWS SA v1.10,2013-05-06 17:30:00,
2013-05-06 13:36:00,69.6,48.6,30.16,North,0,0.0,5.0,48,-99.99,,,-99.99,PWS SA v1.10,2013-05-06 17:36:00,
2013-05-06 13:42:00,69.1,48.6,30.16,SE,142,3.4,6.0,48,-99.99,,,-99.99,PWS SA v1.10,2013-05-06 17:42:00,
2013-05-06 13:48:00,69.9,48.7,30.15,North,0,0.0,6.0,48,-99.99,,,-99.99,PWS SA v1.10,2013-05-06 17:48:00,
2013-05-06 13:54:00,71.0,49.7,30.15,South,184,6.8,6.8,48,-99.99,,,-99.99,PWS SA v1.10,2013-05-06 17:54:00,
2013-05-06 14:00:00,69.5,48.2,30.16,North,0,0.0,6.0,46,-99.99,,,-99.99,PWS SA v1.10,2013-05-06 18:00:00,
2013-05-06 14:06:00,70.3,48.2,30.15,West,274,3.4,6.0,46,-99.99,,,-99.99,PWS SA v1.10,2013-05-06 18:06:00,
2013-05-06 14:12:00,70.4,49.0,30.15,ENE,63,3.4,3.4,47,-99.99,,,-99.99,PWS SA v1.10,2013-05-06 18:12:00,
2013-05-06 14:18:00,70.7,49.6,30.14,North,0,0.0,3.0,48,-99.99,,,-99.99,PWS SA v1.10,2013-05-06 18:18:00,
2013-05-06 14:24:00,70.2,49.1,30.14,SW,236,1.7,5.0,48,-99.99,,,-99.99,PWS SA v1.10,2013-05-06 18:24:00,
2013-05-06 14:30:00,69.3,49.4,30.14,North,0,0.0,5.0,50,-99.99,,,-99.99,PWS SA v1.10,2013-05-06 18:30:00,
2013-05-06 14:36:00,68.9,49.6,30.14,SE,129,10.2,10.2,51,-99.99,,,-99.99,PWS SA v1.10,2013-05-06 18:36:00,
2013-05-06 14:42:00,69.0,49.6,30.14,East,100,3.4,10.0,51,-99.99,,,-99.99,PWS SA v1.10,2013-05-06 18:42:00,
2013-05-06 14:48:00,69.6,49.2,30.13,North,0,0.0,10.0,49,-99.99,,,-99.99,PWS SA v1.10,2013-05-06 18:48:00,
2013-05-06 14:54:00,69.4,50.1,30.13,North,0,0.0,8.0,50,-99.99,,,-99.99,PWS SA v1.10,2013-05-06 18:54:00,
2013-05-06 15:00:00,70.2,49.1,30.13,North,0,0.0,6.0,48,-99.99,,,-99.99,PWS SA v1.10,2013-05-06 19:00:00,
2013-05-06 15:06:00,70.0,49.0,30.13,East,98,1.7,6.0,48,-99.99,,,-99.99,PWS SA v1.10,2013-05-06 19:06:00,
2013-05-06 15:12:00,69.4,49.5,30.12,ESE,121,1.7,6.0,50,-99.99,,,-99.99,PWS SA v1.10,2013-05-06 19:12:00,
2013-05-06 15:18:00,68.9,49.4,30.12,NE,43,1.7,5.0,51,-99.99,,,-99.99,PWS SA v1.10,2013-05-06 19:18:00,
2013-05-06 15:24:00,68.3,49.5,30.12,North,0,0.0,5.0,52,-99.99,,,-99.99,PWS SA v1.10,2013-05-06 19:24:00,
2013-05-06 15:30:00,67.9,49.6,30.12,North,0,0.0,5.0,53,-99.99,,,-99.99,PWS SA v1.10,2013-05-06 19:30:00,
2013-05-06 15:36:00,68.0,50.3,30.12,NNE,32,1.7,5.0,54,-99.99,,,-99.99,PWS SA v1.10,2013-05-06 19:36:00,
2013-05-06 15:42:00,67.3,49.8,30.12,North,0,0.0,5.0,54,-99.99,,,-99.99,PWS SA v1.10,2013-05-06 19:42:00,
2013-05-06 15:48:00,66.5,48.9,30.12,ENE,73,1.7,5.0,54,-99.99,,,-99.99,PWS SA v1.10,2013-05-06 19:48:00,
2013-05-06 15:54:00,66.4,49.3,30.12,North,0,0.0,5.0,55,-99.99,,,-99.99,PWS SA v1.10,2013-05-06 19:54:00,
2013-05-06 16:00:00,66.2,49.1,30.12,ENE,74,1.7,3.0,55,-99.99,,,-99.99,PWS SA v1.10,2013-05-06 20:00:00,
2013-05-06 16:06:00,66.0,49.2,30.12,SE,125,5.1,5.1,56,-99.99,,,-99.99,PWS SA v1.10,2013-05-06 20:06:00,
2013-05-06 16:12:00,66.5,49.8,30.11,North,0,0.0,5.0,56,-99.99,,,-99.99,PWS SA v1.10,2013-05-06 20:12:00,
2013-05-06 16:18:00,66.4,49.2,30.10,North,0,0.0,5.0,55,-99.99,,,-99.99,PWS SA v1.10,2013-05-06 20:18:00,
2013-05-06 16:24:00,65.8,49.3,30.10,NNE,25,5.1,5.1,56,-99.99,,,-99.99,PWS SA v1.10,2013-05-06 20:24:00,
2013-05-06 16:30:00,65.3,49.1,30.10,North,0,0.0,5.0,57,-99.99,,,-99.99,PWS SA v1.10,2013-05-06 20:30:00,
2013-05-06 16:36:00,64.7,49.2,30.10,North,0,0.0,5.0,57,-99.99,,,-99.99,PWS SA v1.10,2013-05-06 20:36:00,
2013-05-06 16:42:00,65.2,49.7,30.10,North,0,0.0,3.0,58,-99.99,,,-99.99,PWS SA v1.10,2013-05-06 20:42:00,
2013-05-06 16:48:00,64.7,48.8,30.11,North,0,0.0,3.0,57,-99.99,,,-99.99,PWS SA v1.10,2013-05-06 20:48:00,
2013-05-06 16:54:00,65.6,50.0,30.11,North,0,0.0,3.0,58,-99.99,,,-99.99,PWS SA v1.10,2013-05-06 20:54:00,
2013-05-06 17:00:00,64.9,49.1,30.10,WNW,299,1.7,3.0,57,-99.99,,,-99.99,PWS SA v1.10,2013-05-06 21:00:00,
2013-05-06 17:06:00,64.4,48.9,30.10,East,82,1.7,6.0,58,-99.99,,,-99.99,PWS SA v1.10,2013-05-06 21:06:00,
2013-05-06 17:12:00,65.1,49.8,30.10,North,0,0.0,6.0,59,-99.99,,,-99.99,PWS SA v1.10,2013-05-06 21:12:00,
2013-05-06 17:18:00,65.5,50.5,30.10,South,191,3.4,3.4,59,-99.99,,,-99.99,PWS SA v1.10,2013-05-06 21:18:00,
2013-05-06 17:24:00,65.7,50.1,30.10,North,0,0.0,3.0,58,-99.99,,,-99.99,PWS SA v1.10,2013-05-06 21:24:00,
2013-05-06 17:30:00,66.0,50.5,30.10,North,0,0.0,3.0,59,-99.99,,,-99.99,PWS SA v1.10,2013-05-06 21:30:00,
2013-05-06 17:36:00,65.2,49.9,30.10,North,0,0.0,0.0,58,-99.99,,,-99.99,PWS SA v1.10,2013-05-06 21:36:00,
2013-05-06 17:42:00,65.0,50.2,30.10,North,0,0.0,3.0,60,-99.99,,,-99.99,PWS SA v1.10,2013-05-06 21:42:00,
2013-05-06 17:48:00,64.2,49.9,30.10,North,0,0.0,3.0,60,-99.99,,,-99.99,PWS SA v1.10,2013-05-06 21:48:00,
2013-05-06 17:54:00,64.3,50.3,30.10,NE,52,1.7,1.7,61,-99.99,,,-99.99,PWS SA v1.10,2013-05-06 21:54:00,
2013-05-06 18:00:00,64.1,49.9,30.10,North,0,0.0,3.0,61,-99.99,,,-99.99,PWS SA v1.10,2013-05-06 22:00:00,
2013-05-06 18:06:00,63.6,50.3,30.10,North,0,0.0,3.0,63,-99.99,,,-99.99,PWS SA v1.10,2013-05-06 22:06:00,
2013-05-06 18:12:00,62.5,49.8,30.10,North,0,0.0,3.0,63,-99.99,,,-99.99,PWS SA v1.10,2013-05-06 22:12:00,
2013-05-06 18:18:00,62.4,50.0,30.10,North,0,0.0,3.0,64,-99.99,,,-99.99,PWS SA v1.10,2013-05-06 22:18:00,
2013-05-06 18:24:00,61.9,49.9,30.10,North,0,0.0,3.0,65,-99.99,,,-99.99,PWS SA v1.10,2013-05-06 22:24:00,
2013-05-06 18:30:00,61.6,49.7,30.09,North,0,0.0,1.0,66,-99.99,,,-99.99,PWS SA v1.10,2013-05-06 22:30:00,
2013-05-06 18:36:00,61.4,50.1,30.10,North,0,0.0,1.0,67,-99.99,,,-99.99,PWS SA v1.10,2013-05-06 22:36:00,
2013-05-06 18:42:00,61.0,49.9,30.10,North,0,0.0,1.0,68,-99.99,,,-99.99,PWS SA v1.10,2013-05-06 22:42:00,
2013-05-06 18:48:00,60.8,49.9,30.10,North,0,0.0,3.0,68,-99.99,,,-99.99,PWS SA v1.10,2013-05-06 22:48:00,
2013-05-06 18:54:00,60.1,50.0,30.10,North,0,0.0,3.0,70,-99.99,,,-99.99,PWS SA v1.10,2013-05-06 22:54:00,
2013-05-06 19:00:00,59.7,49.9,30.10,North,0,0.0,0.0,71,-99.99,,,-99.99,PWS SA v1.10,2013-05-06 23:00:00,
2013-05-06 19:06:00,59.3,49.7,30.10,North,0,0.0,1.0,71,-99.99,,,-99.99,PWS SA v1.10,2013-05-06 23:06:00,
2013-05-06 19:12:00,59.0,49.7,30.09,North,0,0.0,1.0,72,-99.99,,,-99.99,PWS SA v1.10,2013-05-06 23:12:00,
2013-05-06 19:18:00,58.7,49.5,30.10,North,0,0.0,0.0,73,-99.99,,,-99.99,PWS SA v1.10,2013-05-06 23:18:00,
2013-05-06 19:24:00,58.1,49.3,30.10,North,0,0.0,0.0,74,-99.99,,,-99.99,PWS SA v1.10,2013-05-06 23:24:00,
2013-05-06 19:30:00,57.4,49.1,30.10,North,0,0.0,0.0,75,-99.99,,,-99.99,PWS SA v1.10,2013-05-06 23:30:00,
2013-05-06 19:36:00,57.0,49.3,30.10,North,0,0.0,0.0,76,-99.99,,,-99.99,PWS SA v1.10,2013-05-06 23:36:00,
2013-05-06 19:42:00,56.6,49.2,30.10,North,0,0.0,0.0,77,-99.99,,,-99.99,PWS SA v1.10,2013-05-06 23:42:00,
2013-05-06 19:48:00,56.2,49.2,30.10,North,0,0.0,0.0,78,-99.99,,,-99.99,PWS SA v1.10,2013-05-06 23:48:00,
2013-05-06 19:54:00,55.8,49.2,30.11,North,0,0.0,0.0,79,-99.99,,,-99.99,PWS SA v1.10,2013-05-06 23:54:00,
2013-05-06 20:00:00,55.5,49.5,30.11,North,0,0.0,0.0,80,-99.99,,,-99.99,PWS SA v1.10,2013-05-07 00:00:00,
2013-05-06 20:06:00,55.1,49.3,30.11,North,0,0.0,0.0,81,-99.99,,,-99.99,PWS SA v1.10,2013-05-07 00:06:00,
2013-05-06 20:12:00,54.6,49.2,30.11,North,0,0.0,0.0,82,-99.99,,,-99.99,PWS SA v1.10,2013-05-07 00:12:00,
2013-05-06 20:18:00,54.3,49.1,30.11,North,0,0.0,0.0,83,-99.99,,,-99.99,PWS SA v1.10,2013-05-07 00:18:00,
2013-05-06 20:24:00,54.1,49.0,30.11,North,0,0.0,0.0,84,-99.99,,,-99.99,PWS SA v1.10,2013-05-07 00:24:00,
2013-05-06 20:30:00,53.9,48.8,30.11,North,0,0.0,0.0,84,-99.99,,,-99.99,PWS SA v1.10,2013-05-07 00:30:00,
2013-05-06 20:36:00,53.4,48.9,30.11,North,0,0.0,0.0,85,-99.99,,,-99.99,PWS SA v1.10,2013-05-07 00:36:00,
2013-05-06 20:42:00,53.1,48.9,30.11,North,0,0.0,0.0,86,-99.99,,,-99.99,PWS SA v1.10,2013-05-07 00:42:00,
2013-05-06 20:48:00,52.9,49.4,30.12,North,0,0.0,0.0,88,-99.99,,,-99.99,PWS SA v1.10,2013-05-07 00:48:00,
2013-05-06 20:54:00,52.8,49.1,30.13,North,0,0.0,0.0,88,-99.99,,,-99.99,PWS SA v1.10,2013-05-07 00:54:00,
2013-05-06 21:00:00,52.7,49.1,30.13,North,0,0.0,0.0,88,-99.99,,,-99.99,PWS SA v1.10,2013-05-07 01:00:00,
2013-05-06 21:06:00,52.4,49.2,30.12,North,0,0.0,0.0,88,-99.99,,,-99.99,PWS SA v1.10,2013-05-07 01:06:00,
2013-05-06 21:12:00,52.1,49.0,30.12,North,0,0.0,0.0,89,-99.99,,,-99.99,PWS SA v1.10,2013-05-07 01:12:00,
2013-05-06 21:18:00,52.0,48.9,30.13,North,0,0.0,0.0,90,-99.99,,,-99.99,PWS SA v1.10,2013-05-07 01:18:00,
2013-05-06 21:24:00,51.8,49.0,30.13,North,0,0.0,0.0,90,-99.99,,,-99.99,PWS SA v1.10,2013-05-07 01:24:00,
2013-05-06 21:30:00,51.8,49.0,30.13,North,0,0.0,0.0,90,-99.99,,,-99.99,PWS SA v1.10,2013-05-07 01:30:00,
2013-05-06 21:36:00,51.8,49.0,30.13,North,0,0.0,0.0,91,-99.99,,,-99.99,PWS SA v1.10,2013-05-07 01:36:00,
2013-05-06 21:42:00,51.8,49.0,30.13,North,0,0.0,0.0,91,-99.99,,,-99.99,PWS SA v1.10,2013-05-07 01:42:00,
2013-05-06 21:48:00,51.9,49.0,30.13,North,0,0.0,0.0,91,-99.99,,,-99.99,PWS SA v1.10,2013-05-07 01:48:00,
2013-05-06 21:54:00,51.8,49.1,30.13,North,0,0.0,0.0,91,-99.99,,,-99.99,PWS SA v1.10,2013-05-07 01:54:00,
2013-05-06 22:00:00,51.9,49.1,30.13,North,0,0.0,0.0,91,-99.99,,,-99.99,PWS SA v1.10,2013-05-07 02:00:00,
2013-05-06 22:06:00,52.0,49.1,30.13,North,0,0.0,0.0,91,-99.99,,,-99.99,PWS SA v1.10,2013-05-07 02:06:00,
2013-05-06 22:12:00,52.1,49.0,30.13,North,0,0.0,0.0,90,-99.99,,,-99.99,PWS SA v1.10,2013-05-07 02:12:00,
2013-05-06 22:18:00,52.1,49.1,30.13,North,0,0.0,0.0,90,-99.99,,,-99.99,PWS SA v1.10,2013-05-07 02:18:00,
2013-05-06 22:24:00,52.1,48.9,30.13,North,0,0.0,0.0,89,-99.99,,,-99.99,PWS SA v1.10,2013-05-07 02:24:00,
2013-05-06 22:30:00,52.1,48.9,30.13,North,0,0.0,0.0,89,-99.99,,,-99.99,PWS SA v1.10,2013-05-07 02:30:00,
2013-05-06 22:36:00,52.0,48.9,30.13,North,0,0.0,0.0,89,-99.99,,,-99.99,PWS SA v1.10,2013-05-07 02:36:00,
2013-05-06 22:42:00,52.0,48.6,30.13,North,0,0.0,0.0,88,-99.99,,,-99.99,PWS SA v1.10,2013-05-07 02:42:00,
2013-05-06 22:48:00,52.0,48.5,30.13,North,0,0.0,0.0,88,-99.99,,,-99.99,PWS SA v1.10,2013-05-07 02:48:00,
2013-05-06 22:54:00,52.1,48.8,30.13,North,0,0.0,0.0,89,-99.99,,,-99.99,PWS SA v1.10,2013-05-07 02:54:00,
2013-05-06 23:00:00,52.0,48.4,30.13,North,0,0.0,0.0,88,-99.99,,,-99.99,PWS SA v1.10,2013-05-07 03:00:00,
2013-05-06 23:06:00,52.0,48.4,30.13,North,0,0.0,0.0,87,-99.99,,,-99.99,PWS SA v1.10,2013-05-07 03:06:00,
2013-05-06 23:12:00,52.0,47.9,30.12,North,0,0.0,0.0,87,-99.99,,,-99.99,PWS SA v1.10,2013-05-07 03:12:00,
2013-05-06 23:18:00,51.6,47.8,30.13,North,0,0.0,0.0,87,-99.99,,,-99.99,PWS SA v1.10,2013-05-07 03:18:00,
2013-05-06 23:24:00,51.8,47.7,30.12,North,0,0.0,0.0,87,-99.99,,,-99.99,PWS SA v1.10,2013-05-07 03:24:00,
2013-05-06 23:30:00,51.5,47.5,30.12,North,0,0.0,0.0,87,-99.99,,,-99.99,PWS SA v1.10,2013-05-07 03:30:00,
2013-05-06 23:36:00,51.3,47.3,30.13,North,0,0.0,0.0,87,-99.99,,,-99.99,PWS SA v1.10,2013-05-07 03:36:00,
2013-05-06 23:42:00,51.1,47.5,30.12,North,0,0.0,0.0,87,-99.99,,,-99.99,PWS SA v1.10,2013-05-07 03:42:00,
2013-05-06 23:48:00,51.1,47.3,30.12,North,0,0.0,0.0,87,-99.99,,,-99.99,PWS SA v1.10,2013-05-07 03:48:00,
2013-05-06 23:54:00,51.0,47.1,30.12,North,0,0.0,0.0,87,-99.99,,,-99.99,PWS SA v1.10,2013-05-07 03:54:00,